When you browse on this site, cookies collect data to enhance your experience and personalize the content and advertising you see.
Visit our Privacy Policy to learn more. By continuing to use the site, you agree to this use of cookies and data.
  • In Lithuania
  • List of Countries
  • For 7 days
  • Water Temperature
  • Satellite Maps
  • Weather Map
  • Weather Widgets
  • user-avatar
    Login

    Hourly Weather Pobeda

    Today, 25 March, Monday

    Time Temperature Precipitation Wind Pressure Humidity
    00:00 -5°C° 0 mm 4 mps 732 mmHg 91%
    01:00 -5°C° 0 mm 4 mps 732 mmHg 90%
    02:00 -5°C° 0 mm 4 mps 732 mmHg 89%
    03:00 -7°C° 0 mm 4 mps 732 mmHg 89%
    04:00 -7°C° 0 mm 4 mps 732 mmHg 89%
    05:00 -7°C° 0 mm 4 mps 732 mmHg 89%
    06:00 -7°C° 0 mm 4 mps 732 mmHg 90%
    07:00 -7°C° 0 mm 4 mps 733 mmHg 89%
    08:00 -5°C° 0 mm 4 mps 733 mmHg 89%
    09:00 -4°C° 0 mm 4 mps 733 mmHg 88%
    10:00 -3°C° 0 mm 4 mps 733 mmHg 91%
    11:00 -2°C° 0 mm 4 mps 733 mmHg 93%
    12:00 -2°C° 0 mm 4 mps 734 mmHg 96%
    13:00 -2°C° 0 mm 4 mps 734 mmHg 97%
    14:00 -2°C° 0 mm 4 mps 734 mmHg 97%
    15:00 -1°C° 0 mm 4 mps 734 mmHg 98%
    16:00 -1°C° 0 mm 3 mps 734 mmHg 97%
    17:00 -1°C° 0 mm 3 mps 734 mmHg 95%
    18:00 -2°C° 0 mm 3 mps 734 mmHg 94%
    19:00 -2°C° 0 mm 3 mps 734 mmHg 91%
    20:00 -4°C° 0 mm 3 mps 734 mmHg 88%
    21:00 -4°C° 0 mm 3 mps 734 mmHg 85%
    22:00 -4°C° 0 mm 3 mps 734 mmHg 84%
    23:00 -4°C° 0 mm 3 mps 734 mmHg 83%

    Tomorrow, 26 March, Tuesday

    Time Temperature Precipitation Wind Pressure Humidity
    00:00 -4°C° 0 mm 3 mps 733 mmHg 83%
    01:00 -4°C° 0 mm 3 mps 733 mmHg 83%
    02:00 -4°C° 0 mm 3 mps 733 mmHg 84%
    03:00 -2°C° 0 mm 3 mps 733 mmHg 84%
    04:00 -2°C° 0.2 mm 3 mps 732 mmHg 86%
    05:00 -2°C° 0.2 mm 3 mps 732 mmHg 88%
    06:00 -2°C° 0.2 mm 2 mps 731 mmHg 90%
    07:00 0°C° 1 mm 1 mps 731 mmHg 93%
    08:00 +1°C° 1 mm 1 mps 730 mmHg 95%
    09:00 0°C° 1 mm 0 mps 730 mmHg 98%
    10:00 +1°C° 0.2 mm 1 mps 730 mmHg 98%
    11:00 +1°C° 0.2 mm 1 mps 730 mmHg 99%
    12:00 +1°C° 0.2 mm 2 mps 730 mmHg 99%
    13:00 +1°C° 0 mm 2 mps 730 mmHg 99%
    14:00 0°C° 0 mm 3 mps 730 mmHg 99%
    15:00 0°C° 0 mm 3 mps 730 mmHg 99%
    16:00 0°C° 0 mm 3 mps 730 mmHg 99%
    17:00 -1°C° 0 mm 4 mps 730 mmHg 99%
    18:00 -2°C° 0 mm 4 mps 730 mmHg 99%
    19:00 -1°C° 1 mm 4 mps 730 mmHg 98%
    20:00 -1°C° 1 mm 4 mps 731 mmHg 97%
    21:00 -1°C° 1 mm 4 mps 731 mmHg 95%
    22:00 -2°C° 0.1 mm 4 mps 731 mmHg 93%
    23:00 -3°C° 0.1 mm 4 mps 731 mmHg 91%

    Day after tomorrow, 27 March, Wednesday

    Time Temperature Precipitation Wind Pressure Humidity
    00:00 -4°C° 0.1 mm 5 mps 731 mmHg 89%
    01:00 -4°C° 0 mm 4 mps 732 mmHg 89%
    02:00 -5°C° 0 mm 4 mps 732 mmHg 90%
    03:00 -7°C° 0 mm 4 mps 732 mmHg 90%
    04:00 -7°C° 0 mm 4 mps 733 mmHg 90%
    05:00 -6°C° 0 mm 3 mps 733 mmHg 90%
    06:00 -7°C° 0 mm 3 mps 734 mmHg 90%
    07:00 -6°C° 0 mm 3 mps 734 mmHg 90%
    08:00 -5°C° 0 mm 3 mps 735 mmHg 90%
    09:00 -5°C° 0 mm 3 mps 736 mmHg 90%
    10:00 -4°C° 0 mm 3 mps 736 mmHg 90%
    11:00 -2°C° 0 mm 2 mps 736 mmHg 91%
    12:00 -1°C° 0 mm 2 mps 737 mmHg 92%
    13:00 -1°C° 0 mm 2 mps 737 mmHg 93%
    14:00 -1°C° 0 mm 2 mps 737 mmHg 94%
    15:00 -1°C° 0 mm 2 mps 738 mmHg 95%
    16:00 -1°C° 0 mm 2 mps 738 mmHg 91%
    17:00 -2°C° 0 mm 2 mps 738 mmHg 86%
    18:00 -2°C° 0 mm 2 mps 738 mmHg 81%
    19:00 -3°C° 0 mm 2 mps 739 mmHg 81%
    20:00 -4°C° 0 mm 2 mps 739 mmHg 80%
    21:00 -5°C° 0 mm 2 mps 740 mmHg 80%
    22:00 -6°C° 0 mm 3 mps 740 mmHg 82%
    23:00 -6°C° 0 mm 3 mps 740 mmHg 85%

    28 March, Thursday

    Time Temperature Precipitation Wind Pressure Humidity
    00:00 -6°C° 0 mm 3 mps 740 mmHg 87%
    01:00 -6°C° 0 mm 3 mps 741 mmHg 88%
    02:00 -6°C° 0 mm 3 mps 741 mmHg 89%
    03:00 -7°C° 0 mm 3 mps 741 mmHg 90%
    04:00 -7°C° 0 mm 3 mps 741 mmHg 91%
    05:00 -8°C° 0 mm 4 mps 742 mmHg 91%
    06:00 -8°C° 0 mm 4 mps 742 mmHg 92%
    07:00 -7°C° 0 mm 4 mps 742 mmHg 91%
    08:00 -7°C° 0 mm 4 mps 743 mmHg 90%
    09:00 -6°C° 0 mm 5 mps 743 mmHg 89%
    10:00 -6°C° 0 mm 5 mps 743 mmHg 87%
    11:00 -5°C° 0 mm 5 mps 744 mmHg 85%
    12:00 -5°C° 0 mm 5 mps 744 mmHg 83%
    13:00 -4°C° 0 mm 5 mps 744 mmHg 82%
    14:00 -4°C° 0 mm 5 mps 744 mmHg 81%
    15:00 -4°C° 0 mm 5 mps 744 mmHg 80%
    16:00 -3°C° 0 mm 4 mps 744 mmHg 80%
    17:00 -3°C° 0 mm 4 mps 744 mmHg 81%
    18:00 -3°C° 0 mm 4 mps 744 mmHg 81%
    19:00 -4°C° 0 mm 3 mps 744 mmHg 82%
    20:00 -5°C° 0 mm 3 mps 745 mmHg 82%
    21:00 -5°C° 0 mm 3 mps 745 mmHg 82%
    22:00 -5°C° 0 mm 3 mps 745 mmHg 83%
    23:00 -5°C° 0 mm 3 mps 744 mmHg 83%

    29 March, Friday

    Time Temperature Precipitation Wind Pressure Humidity
    00:00 -5°C° 0 mm 3 mps 744 mmHg 83%
    01:00 -5°C° 0 mm 3 mps 744 mmHg 82%
    02:00 -5°C° 0 mm 4 mps 743 mmHg 80%
    03:00 -5°C° 0 mm 4 mps 743 mmHg 79%
    04:00 -6°C° 0 mm 5 mps 742 mmHg 81%
    05:00 -5°C° 0 mm 5 mps 741 mmHg 82%
    06:00 -5°C° 0 mm 6 mps 741 mmHg 84%
    07:00 -4°C° 0.3 mm 6 mps 740 mmHg 86%
    08:00 -3°C° 0.3 mm 7 mps 740 mmHg 89%
    09:00 -2°C° 0.3 mm 7 mps 739 mmHg 91%
    10:00 -2°C° 0 mm 7 mps 739 mmHg 93%
    11:00 -2°C° 0 mm 7 mps 739 mmHg 94%
    12:00 -1°C° 0 mm 7 mps 738 mmHg 96%
    13:00 -1°C° 0 mm 6 mps 738 mmHg 93%
    14:00 +1°C° 0 mm 6 mps 738 mmHg 91%
    15:00 +1°C° 0 mm 6 mps 738 mmHg 89%
    16:00 +1°C° 0 mm 5 mps 738 mmHg 86%
    17:00 +1°C° 0 mm 5 mps 739 mmHg 82%
    18:00 +1°C° 0 mm 5 mps 739 mmHg 79%
    19:00 0°C° 0 mm 4 mps 740 mmHg 82%
    20:00 -1°C° 0 mm 4 mps 740 mmHg 85%
    21:00 -1°C° 0 mm 3 mps 741 mmHg 88%
    22:00 -1°C° 0 mm 3 mps 741 mmHg 89%
    23:00 -1°C° 0 mm 3 mps 741 mmHg 90%

    30 March, Saturday

    Time Temperature Precipitation Wind Pressure Humidity
    00:00 -2°C° 0 mm 2 mps 741 mmHg 91%
    01:00 -2°C° 0 mm 2 mps 741 mmHg 92%
    02:00 -2°C° 0 mm 2 mps 741 mmHg 92%
    03:00 0°C° 0 mm 1 mps 741 mmHg 92%
    04:00 -2°C° 0 mm 2 mps 741 mmHg 93%
    05:00 -2°C° 0 mm 2 mps 741 mmHg 93%
    06:00 -2°C° 0 mm 2 mps 741 mmHg 94%
    07:00 -1°C° 0 mm 2 mps 741 mmHg 95%
    08:00 +1°C° 0 mm 2 mps 741 mmHg 97%
    09:00 +1°C° 0 mm 2 mps 742 mmHg 98%
    10:00 +2°C° 0 mm 2 mps 741 mmHg 98%
    11:00 +2°C° 0 mm 2 mps 741 mmHg 98%
    12:00 +3°C° 0 mm 2 mps 741 mmHg 98%
    13:00 +2°C° 0 mm 3 mps 741 mmHg 98%
    14:00 +3°C° 0 mm 3 mps 741 mmHg 98%
    15:00 +3°C° 0 mm 3 mps 741 mmHg 98%
    16:00 +2°C° 0 mm 3 mps 740 mmHg 98%
    17:00 +2°C° 0 mm 3 mps 740 mmHg 98%
    18:00 +2°C° 0 mm 3 mps 740 mmHg 98%
    19:00 +2°C° 0 mm 3 mps 740 mmHg 98%
    20:00 +1°C° 0 mm 3 mps 740 mmHg 97%
    21:00 +1°C° 0 mm 3 mps 740 mmHg 97%
    22:00 +1°C° 0 mm 3 mps 740 mmHg 96%
    23:00 +2°C° 0 mm 3 mps 740 mmHg 94%
    Show more